Flag for Poland Weather past 2 weeks in Koszalin, Poland

Now
56 °F

Sunny.


Feels Like: 56 °F
Forecast: 56 / 72 °F
Wind: 3 mph from Southeast

Location: Koszalin

Current Time: Sep 19, 2014 at 8:22:27 AM

Latest Report: Sep 19, 2014 at 7:00 AM


Visibility: 6 mi

Pressure: 30.01 "Hg

Humidity: 81%

Dew point: 50 °F

Location of KoszalinLocation

Historic Weather in Koszalin — Graph

°F

Koszalin temperature yesterday

Maximum temperature yesterday: 72 °F (at 4:00 PM)
Minimum temperature yesterday: 53 °F (at 7:00 AM)
Average temperature yesterday: 62 °F

Past Weeks' High & Low Weather Summary

 TemperatureHumidityPressure
High78 °F (Sep 7, 5:00 PM)95% (Sep 11, 8:00 AM)30.35 "Hg (Sep 11, 8:00 AM)
Low45 °F (Sep 11, 7:00 AM)34% (Sep 6, 3:00 PM)29.88 "Hg (Sep 10, 5:00 AM)
Average62 °F71%30.09 "Hg
* Reported Sep 4 5:00 AM — Sep 19 5:00 AM, Koszalin, Weather by CustomWeather, © 2014

Note: Actual official high and low records may vary slightly from our data, if they occured in-between our weather recording intervals... More about our weather records

Advertising

Koszalin weather history for previous 24 hours

 ConditionsComfort  
Time TempWeatherWind HumidityBarometerVisibility
5:00 AM
Sep 19
57 °FClear.3 mph76%30.02 "Hg7 mi
2:00 AM60 °FClear.2 mph65%30.04 "Hg14 mi
11:00 PM
Sep 18
63 °FOvercast.3 mph49%30.05 "Hg19 mi
10:00 PM64 °FOvercast.3 mph45%30.05 "Hg18 mi
9:00 PM65 °FPassing clouds.1 mph45%30.05 "Hg17 mi
8:00 PM66 °FPassing clouds.2 mph44%30.06 "Hg14 mi
5:00 PM72 °FPassing clouds.3 mph35%30.05 "Hg16 mi
4:00 PM72 °FPassing clouds.3 mph35%30.05 "Hg16 mi
3:00 PM72 °FSunny.3 mph38%30.06 "Hg13 mi
2:00 PM71 °FSunny.3 mph40%30.07 "Hg15 mi
1:00 PM69 °FSunny.5 mph43%30.09 "Hg14 mi
12:00 PM69 °FSunny.5 mph43%30.10 "Hg14 mi
11:00 AM65 °FSunny.3 mph53%30.11 "Hg14 mi
10:00 AM62 °FSunny.3 mph61%30.12 "Hg13 mi
9:00 AM58 °FSunny.3 mph69%30.12 "Hg11 mi
8:00 AM55 °FPassing clouds.3 mph73%30.13 "Hg11 mi
Weather by CustomWeather, © 2014

See weather overviewHow to use our weather pages